Weather History for Parkersburg, WV

Change the Weather History Date:

Monday, February 18, 2013

  Actual Average Record
Temperature  
Mean Temperature 31 °F 35 °F  
Max Temperature 52 °F 45 °F 70 °F (1981)
Min Temperature 10 °F 26 °F -2 °F (1936)
Degree Days  
Heating Degree Days 34 30  
Month to date heating degree days 591 564  
Since 1 July heating degree days 3432 3509  
Cooling Degree Days 0 0  
Month to date cooling degree days 0 0  
Year to date cooling degree days 0 0  
Moisture  
Dew Point 18 °F    
Average Humidity 59    
Maximum Humidity 84    
Minimum Humidity 33    
Precipitation  
Precipitation 0.00 in 0.10 in 0.22 in (2000)
Month to date precipitation 0.68 1.71  
Year to date precipitation 4.06 4.66  
Sea Level Pressure  
Sea Level Pressure 30.17 in    
Wind  
Wind Speed 6 mph (SSE)    
Max Wind Speed 17 mph    
Max Gust Speed 25 mph    
Visibility 9 miles    
Events      
T = Trace of Precipitation, MM = Missing Value Source: NWS Daily Summary

Daily Weather History Graph

Daily Weather History Graph

Search for Another Location

Airport:

Trip Planner

Search our weather history database for the weather conditions in past years. The results will help you decide how hot, cold, wet, or windy it might be!

Date:

Astronomy

Feb. 18, 2013 Rise Set
Actual Time 7:13 AM EST 6:06 PM EST
Civil Twilight 6:46 AM EST 6:33 PM EST
Nautical Twilight 6:14 AM EST 7:04 PM EST
Astronomical Twilight 5:43 AM EST 7:36 PM EST
Moon 11:52 AM EST (2/18) 1:51 AM EST (2/18)
Length of Visible Light 11h 47m
Length of Day
10h 52m
First Quarter, 58% of the Moon is Illuminated
Feb 18
First Quarter
Feb 25
Full
Mar 4
Last Quarter
Mar 11
New
Mar 19
First Quarter

Hourly Weather History & Observations

Time (EST) Temp. Windchill Dew Point Humidity Pressure Visibility Wind Dir Wind Speed Gust Speed Precip Events Conditions
12:53 AM 14.0 °F - 7.0 °F 74% 30.35 in 9.0 mi Calm Calm - N/A   Clear
1:53 AM 12.9 °F - 8.1 °F 81% 30.34 in 5.0 mi Calm Calm - N/A   Haze
2:53 AM 12.0 °F - 8.1 °F 84% 30.34 in 7.0 mi Calm Calm - N/A   Clear
3:53 AM 12.0 °F - 7.0 °F 80% 30.33 in 7.0 mi Calm Calm - N/A   Clear
4:53 AM 10.9 °F - 7.0 °F 84% 30.34 in 7.0 mi Calm Calm - N/A   Clear
5:53 AM 12.0 °F - 7.0 °F 80% 30.35 in 9.0 mi Calm Calm - N/A   Clear
6:53 AM 12.0 °F 5.9 °F 7.0 °F 80% 30.34 in 10.0 mi East 3.5 mph - N/A   Clear
7:53 AM 16.0 °F 7.4 °F 10.0 °F 77% 30.32 in 10.0 mi East 5.8 mph - N/A   Clear
9:53 AM 28.9 °F 22.8 °F 10.0 °F 45% 30.29 in 10.0 mi SE 5.8 mph - N/A   Clear
10:53 AM 35.1 °F 27.4 °F 12.0 °F 39% 30.26 in 10.0 mi SSE 10.4 mph - N/A   Clear
11:53 AM 39.9 °F 33.9 °F 15.1 °F 36% 30.23 in 10.0 mi SE 9.2 mph - N/A   Clear
12:53 PM 45.0 °F 38.5 °F 18.0 °F 34% 30.18 in 10.0 mi South 13.8 mph 18.4 mph N/A   Clear
1:53 PM 46.9 °F - 19.9 °F 34% 30.13 in 10.0 mi South 11.5 mph 19.6 mph N/A   Partly Cloudy
2:53 PM 48.9 °F - 23.0 °F 36% 30.11 in 10.0 mi South 6.9 mph 19.6 mph N/A   Partly Cloudy
3:53 PM 51.1 °F - 26.1 °F 38% 30.10 in 10.0 mi South 9.2 mph 19.6 mph N/A   Clear
4:53 PM 51.1 °F - 27.0 °F 39% 30.07 in 10.0 mi SSE 8.1 mph - N/A   Clear
5:53 PM 50.0 °F - 28.0 °F 43% 30.05 in 10.0 mi SSE 6.9 mph - N/A   Clear
6:53 PM 48.0 °F - 28.0 °F 46% 30.04 in 10.0 mi SSE 5.8 mph - N/A   Clear
7:53 PM 46.9 °F - 28.9 °F 50% 30.01 in 10.0 mi SE 8.1 mph - N/A   Clear
8:53 PM 46.9 °F - 28.9 °F 50% 29.99 in 10.0 mi SSE 8.1 mph - N/A   Clear
9:53 PM 46.9 °F - 28.0 °F 48% 29.96 in 10.0 mi SSE 8.1 mph - N/A   Clear
10:53 PM 46.9 °F - 27.0 °F 46% 29.91 in 10.0 mi SSE 9.2 mph 17.3 mph N/A   Clear
11:53 PM 48.0 °F - 24.1 °F 39% 29.89 in 10.0 mi SSE 15.0 mph 23.0 mph N/A   Partly Cloudy